[[{"header":{"parameterUnit":"m.s-1","parameterCategory":1,"la1":30.2991,"la2":30.254,"lo1":-89.0895,"lo2":-89.0444,"dy":0.0017,"dx":0.0017,"nx":28,"ny":28,"refTime":"2025-02-23T03:00:00:Z","depth":0,"parameterNumber":2,"parameterNumberName":"U-component_of_WINDS"},"data":[0,0,0,0,0,0,0,0,0,0,0,0,0,0,0,0,0,0,0,0,0,0,0,0,0,0,0,0,0,0,0,0,0,0,0,0,0,0,0,0,0,0,0,0,0,0,0,0,0,0,0,0,0,0,0,0,0,0,-4.7419,-4.742,0,-4.7542,-4.7543,-4.7544,-4.7404,-4.7399,-4.7394,-4.7389,-4.752,-4.7529,-4.7537,0,0,0,0,0,0,0,0,0,0,0,0,0,-4.7069,-4.7076,-4.7418,-4.742,-4.7422,-4.7541,-4.7543,-4.7545,-4.7405,-4.7399,-4.7392,-4.7386,-4.7518,-4.7528,-4.7538,0,0,0,0,0,0,0,0,0,0,0,0,0,-4.7209,-4.7078,-4.7418,-4.7366,-4.7363,-4.7541,-4.7543,-4.7545,-4.7406,-4.7398,-4.7391,-4.7383,-4.7514,-4.7527,-4.7539,-4.7777,0,0,-4.7578,-4.7583,0,0,0,0,0,0,0,0,-4.7202,-4.7222,-4.7372,-4.737,-4.7367,-4.7449,-4.7468,-4.7623,-4.7408,-4.739,-4.7388,-4.7379,-4.7504,-4.7517,-4.7557,-4.7783,-4.7788,-4.7579,-4.7587,-4.7592,-4.7596,0,0,0,0,0,0,0,-4.7192,-4.7216,-4.7467,-4.7375,-4.7371,-4.7339,-4.735,-4.7497,-4.749,-4.7391,-4.7381,-4.7397,-4.7501,-4.7546,-4.7559,-4.779,-4.7579,-4.759,-4.7598,-4.7603,-4.822,-4.8229,0,0,0,0,0,0,-4.7187,-4.7209,-4.7463,-4.7471,-4.7263,-4.7351,-4.7364,-4.7431,-4.7488,-4.7489,-4.7404,-4.739,-4.7528,-4.7545,-4.7564,-4.7848,-4.7592,-4.7604,-4.7611,-4.8212,-4.8222,-4.8232,0,0,0,0,0,0,-4.718,-4.7211,-4.7458,-4.7337,-4.7366,-4.7366,-4.7442,-4.7438,-4.7482,-4.7498,-4.7496,-4.7451,-4.7522,-4.7546,-4.7725,-4.7851,-4.761,-4.7621,-4.8201,-4.8215,-4.8227,-4.8418,0,0,0,0,0,0,-4.7171,-4.721,-4.7298,-4.734,-4.7373,-4.7617,-4.745,-4.7446,-4.7504,-4.7487,-4.7541,-4.7543,-4.7518,-4.7707,-4.7738,-4.7864,-4.7631,-4.819,-4.8207,-4.8223,-4.8401,-4.8436,-4.8467,0,0,0,0,0,-4.7159,-4.7348,-4.7304,-4.7335,-4.7484,-4.7624,-4.7643,-4.7609,-4.7514,-4.7605,-4.7615,-4.7541,-4.7831,-4.7726,-4.776,-4.7892,-4.8182,-4.8202,-4.8221,-4.8386,-4.8429,-4.8466,0,0,0,0,0,0,-4.7322,-4.7352,-4.7304,-4.7511,-4.7566,-4.76,-4.7713,-4.7655,-4.7739,-4.7721,-4.7676,-4.7689,-4.7881,-4.7903,-4.7786,-4.8126,-4.7991,-4.8019,-4.8105,-4.8146,-4.8179,-4.8171,-4.7642,0,0,0,0,0,-4.7382,-4.7491,-4.7512,-4.7694,-4.7724,-4.7714,-4.7774,-4.7742,-4.7798,-4.7821,-4.7844,-4.7903,-4.8007,-4.8077,-4.8174,-4.8402,-4.8414,-4.8509,-4.8542,-4.8569,-4.8595,-4.8721,-4.8765,-4.8297,-4.8297,-4.8296,0,0,-4.7508,-4.7538,-4.761,-4.7728,-4.7766,-4.7883,-4.7735,-4.7864,-4.7951,-4.7841,-4.8013,-4.8032,-4.8094,-4.83,-4.8392,-4.8325,-4.8726,-4.8595,-4.8616,-4.8627,-4.8746,-4.879,-4.883,-4.831,-4.8308,-4.8306,0,0,-4.7797,-4.7829,-4.7985,-4.8027,-4.8087,-4.8079,-4.8117,-4.816,-4.8169,-4.8339,-4.826,-4.8364,-4.8544,-4.8593,-4.8641,-4.895,-4.8887,-4.8983,-4.9157,-4.928,-4.9317,-4.935,-4.9464,-4.9505,-4.9007,-4.9008,-4.9008,0,-4.7947,-4.8117,-4.8073,-4.8209,-4.8265,-4.8169,-4.8329,-4.8371,-4.8461,-4.8503,-4.8426,-4.8652,-4.8686,-4.8904,-4.898,-4.9021,-4.9065,-4.8978,-4.9315,-4.9347,-4.9377,-4.9486,-4.9529,-4.902,-4.9018,-4.9017,-4.9016,0,-4.83,-4.842,-4.8539,-4.8627,-4.8696,-4.8843,-4.8824,-4.8899,-4.8862,-4.8863,-4.904,-4.9078,-4.9183,-4.9231,-4.9196,-4.9446,-4.9403,-4.9321,-4.9186,-4.9434,-4.9536,-4.9577,-4.9036,-4.9032,-4.9029,-4.9026,0,0,-4.8698,-4.8759,-4.8805,-4.8845,-4.8904,-4.8997,-4.9141,-4.9241,-4.9309,-4.9373,-4.9496,-4.965,-4.9576,-4.9631,-4.9601,-4.9708,-4.9956,-4.9614,-4.9615,-4.968,-5.0238,-5.0302,-5.035,-4.9912,-4.992,-4.9926,-5.0234,0,-4.8991,-4.9239,-4.9204,-4.9444,-4.9556,-4.9467,-4.9592,-4.9644,-4.9649,-4.9747,-4.9753,-4.9865,-4.9756,-4.979,-4.9892,-4.9904,-5.0068,-4.9881,-5.003,-5.0036,-5.0021,-5.0403,-5.047,-5.0759,-5.0273,-5.0279,-5.0284,0,-4.9367,-4.9445,-4.9696,-4.974,-4.9786,-4.9899,-4.999,-5.0083,-5.0141,-5.0137,-5.02,-5.0151,-5.0298,-5.0157,-5.0361,-5.0234,-5.0293,-5.0308,-5.0319,-5.0335,-5.0178,-5.0433,-5.0849,-5.0895,-5.0345,-5.034,-5.0336,0,-4.9638,-4.9805,-4.9977,-5.0014,-5.0068,-5.0151,-5.0178,-5.0227,-5.0291,-5.037,-5.0412,-5.0508,-5.0562,-5.0639,-5.0618,-5.0517,-5.0829,-5.0685,-5.0834,-5.0835,-5.0907,-5.0904,-5.1343,-5.0938,-5.0937,-5.0936,-5.0936,0,-4.9971,-5.0129,-5.01,-5.0207,-5.0382,-5.034,-5.0516,-5.0532,-5.0577,-5.0687,-5.0615,-5.0721,-5.0684,-5.0789,-5.0774,-5.0948,-5.0971,-5.0975,-5.097,-5.0985,-5.0985,-5.1025,-5.1007,-5.0948,-5.0945,-5.0943,-5.0941,0,-5.0305,-5.029,-5.0473,-5.051,-5.0523,-5.0651,-5.0683,-5.0785,-5.0783,-5.0925,-5.0955,-5.0955,-5.1075,-5.106,-5.1194,-5.1183,-5.1401,-5.1369,-5.1382,-5.1376,-5.1527,-5.1515,-5.2012,-5.2077,-5.1626,-5.163,-5.1634,0,-5.052,-5.064,-5.0689,-5.0757,-5.079,-5.09,-5.0964,-5.0928,-5.0999,-5.1074,-5.1168,-5.128,-5.1369,-5.1564,-5.1578,-5.168,-5.1654,-5.182,-5.1669,-5.1681,-5.1662,-5.1657,-5.167,-5.1852,-5.1857,-5.1861,-5.1864,0,-5.0907,-5.0894,-5.0988,-5.1082,-5.1161,-5.1233,-5.1298,-5.1358,-5.1329,-5.1412,-5.1532,-5.1601,-5.1737,-5.1852,-5.1948,-5.1978,-5.192,-5.1911,-5.1952,-5.197,-5.1974,-5.1979,-5.1468,-5.1901,-5.1898,-5.1895,-5.1893,-5.1891,-5.1191,-5.1294,-5.1346,-5.1454,-5.1499,-5.1562,-5.166,-5.1671,-5.177,-5.1878,-5.185,-5.1988,-5.2044,-5.2168,-5.2209,-5.2317,-5.2257,-5.2315,-5.233,-5.2346,-5.2366,-5.1953,-5.2334,-5.2333,-5.2332,-5.2331,-5.2331,0,-5.1577,-5.1606,-5.1706,-5.1799,-5.1885,-5.1818,-5.1887,-5.1965,-5.2086,-5.2143,-5.2231,-5.2371,-5.2482,-5.2504,-5.261,-5.2693,-5.2669,-5.2723,-5.2719,-5.2728,-5.2412,-5.2368,-5.2741,-5.2741,-5.2741,-5.2741,-5.2741,-5.2741,-5.1789,-5.1961,-5.1955,-5.215,-5.2177,-5.231,-5.2356,-5.2415,-5.246,-5.262,-5.2711,-5.2723,-5.2767,-5.2876,-5.2976,-5.298,-5.3025,-5.309,-5.3084,-5.279,-5.2749,-5.271,-5.2669,-5.3099,-5.31,-5.3391,-5.3394,-5.3396]},{"header":{"parameterUnit":"m.s-1","parameterCategory":1,"la1":30.2991,"la2":30.254,"lo1":-89.0895,"lo2":-89.0444,"dy":0.0017,"dx":0.0017,"nx":28,"ny":28,"refTime":"2025-02-23T03:00:00:Z","depth":0,"parameterNumber":3,"parameterNumberName":"V-component_of_WINDS"},"data":[0,0,0,0,0,0,0,0,0,0,0,0,0,0,0,0,0,0,0,0,0,0,0,0,0,0,0,0,0,0,0,0,0,0,0,0,0,0,0,0,0,0,0,0,0,0,0,0,0,0,0,0,0,0,0,0,0,0,-4.2433,-4.2432,0,-4.2273,-4.2271,-4.2269,-4.2202,-4.2202,-4.2202,-4.2203,-4.2026,-4.2022,-4.2017,0,0,0,0,0,0,0,0,0,0,0,0,0,-4.2668,-4.2664,-4.2434,-4.2432,-4.243,-4.2273,-4.2271,-4.2268,-4.2202,-4.2202,-4.2202,-4.2203,-4.2028,-4.2022,-4.2016,0,0,0,0,0,0,0,0,0,0,0,0,0,-4.2542,-4.2663,-4.2434,-4.2378,-4.2371,-4.2273,-4.2271,-4.2268,-4.2201,-4.2202,-4.2203,-4.2203,-4.203,-4.2023,-4.2015,-4.1958,0,0,-4.1992,-4.1989,0,0,0,0,0,0,0,0,-4.255,-4.2534,-4.2388,-4.2381,-4.2374,-4.2258,-4.2289,-4.2164,-4.2201,-4.2265,-4.2203,-4.2203,-4.2102,-4.2089,-4.2057,-4.195,-4.1943,-4.1992,-4.1987,-4.1984,-4.1982,0,0,0,0,0,0,0,-4.2558,-4.254,-4.2369,-4.2386,-4.2377,-4.2355,-4.2338,-4.2265,-4.2182,-4.226,-4.2255,-4.2237,-4.2098,-4.2065,-4.2053,-4.194,-4.1992,-4.1985,-4.1981,-4.1978,-4.177,-4.1769,0,0,0,0,0,0,-4.2578,-4.2548,-4.2375,-4.2365,-4.2465,-4.2351,-4.2332,-4.2294,-4.2183,-4.2167,-4.2237,-4.2235,-4.2077,-4.2061,-4.2046,-4.1967,-4.1984,-4.1977,-4.1973,-4.1771,-4.177,-4.1769,0,0,0,0,0,0,-4.2584,-4.2564,-4.2381,-4.2455,-4.243,-4.2346,-4.2305,-4.2291,-4.2257,-4.2166,-4.215,-4.2219,-4.2077,-4.2057,-4.198,-4.196,-4.1973,-4.1967,-4.1772,-4.177,-4.1769,-4.1813,0,0,0,0,0,0,-4.2591,-4.2566,-4.2547,-4.2455,-4.2427,-4.2322,-4.2304,-4.2287,-4.2246,-4.2241,-4.2144,-4.2129,-4.2076,-4.1991,-4.1972,-4.195,-4.1961,-4.1773,-4.1771,-4.177,-4.1813,-4.1813,-4.1813,0,0,0,0,0,-4.2599,-4.2565,-4.2547,-4.2526,-4.2402,-4.2322,-4.2305,-4.2248,-4.2245,-4.2222,-4.2162,-4.2132,-4.1966,-4.1984,-4.1962,-4.1938,-4.1774,-4.1772,-4.177,-4.1812,-4.1813,-4.1813,0,0,0,0,0,0,-4.2654,-4.2552,-4.2531,-4.2467,-4.2404,-4.2311,-4.2281,-4.2251,-4.2185,-4.2183,-4.2112,-4.209,-4.2018,-4.197,-4.1992,-4.1873,-4.1867,-4.186,-4.1907,-4.1907,-4.1907,-4.1919,-4.1954,0,0,0,0,0,-4.266,-4.2607,-4.2519,-4.247,-4.244,-4.2366,-4.2329,-4.2291,-4.2221,-4.2193,-4.2128,-4.2058,-4.1989,-4.1945,-4.1878,-4.1805,-4.1779,-4.1777,-4.1777,-4.1778,-4.1772,-4.1723,-4.1719,-4.1761,-4.1761,-4.1761,0,0,-4.2669,-4.2606,-4.2577,-4.248,-4.2426,-4.2368,-4.2344,-4.2285,-4.2239,-4.2182,-4.2106,-4.2055,-4.1971,-4.1896,-4.1859,-4.1853,-4.1754,-4.1775,-4.1776,-4.177,-4.1721,-4.1717,-4.1713,-4.176,-4.176,-4.176,0,0,-4.2656,-4.2606,-4.2557,-4.2504,-4.2424,-4.2375,-4.2363,-4.2273,-4.2238,-4.2161,-4.2115,-4.2057,-4.1943,-4.1883,-4.1838,-4.1796,-4.1763,-4.1776,-4.1777,-4.173,-4.1727,-4.1723,-4.1703,-4.1698,-4.1771,-4.1771,-4.1771,0,-4.2676,-4.2592,-4.2535,-4.2478,-4.2433,-4.2381,-4.2328,-4.2278,-4.2179,-4.2146,-4.2143,-4.1994,-4.1934,-4.184,-4.183,-4.1797,-4.1776,-4.1786,-4.1733,-4.1729,-4.1724,-4.1704,-4.1698,-4.1773,-4.1773,-4.1772,-4.1772,0,-4.2618,-4.2559,-4.2529,-4.2437,-4.2389,-4.2334,-4.2264,-4.2221,-4.2185,-4.2134,-4.2051,-4.1978,-4.1892,-4.1867,-4.1831,-4.1765,-4.1764,-4.1748,-4.174,-4.1723,-4.1703,-4.1695,-4.1775,-4.1775,-4.1774,-4.1774,0,0,-4.2638,-4.2512,-4.2502,-4.2457,-4.2363,-4.2313,-4.2252,-4.2171,-4.2133,-4.2065,-4.2008,-4.191,-4.1892,-4.1841,-4.1797,-4.1757,-4.1721,-4.1744,-4.174,-4.1738,-4.1637,-4.1648,-4.1641,-4.1699,-4.1698,-4.1696,-4.1642,0,-4.2609,-4.2503,-4.2448,-4.2363,-4.2304,-4.2251,-4.2197,-4.213,-4.2079,-4.2017,-4.1959,-4.1889,-4.1874,-4.1842,-4.18,-4.1735,-4.1699,-4.1738,-4.164,-4.1637,-4.166,-4.1631,-4.1643,-4.1596,-4.1635,-4.1633,-4.1632,0,-4.2563,-4.2497,-4.2407,-4.2314,-4.2287,-4.2241,-4.2158,-4.2102,-4.2021,-4.1986,-4.1927,-4.1883,-4.181,-4.1809,-4.1704,-4.1732,-4.1687,-4.1649,-4.1645,-4.1631,-4.1632,-4.1612,-4.1581,-4.1572,-4.162,-4.1621,-4.1622,0,-4.2581,-4.2469,-4.2399,-4.2363,-4.2254,-4.2221,-4.2174,-4.2095,-4.2047,-4.1973,-4.194,-4.1858,-4.1812,-4.1746,-4.1678,-4.1685,-4.1577,-4.1572,-4.154,-4.1542,-4.1519,-4.1521,-4.1476,-4.1496,-4.1496,-4.1497,-4.1497,0,-4.2554,-4.2499,-4.2405,-4.2363,-4.2297,-4.2231,-4.2167,-4.2115,-4.2043,-4.1984,-4.1932,-4.1877,-4.1793,-4.1724,-4.1671,-4.1588,-4.1568,-4.1533,-4.1519,-4.1536,-4.154,-4.1504,-4.1504,-4.1495,-4.1495,-4.1495,-4.1496,0,-4.2563,-4.2499,-4.2419,-4.2322,-4.2295,-4.2251,-4.2165,-4.2118,-4.2063,-4.1988,-4.1966,-4.1879,-4.1795,-4.1722,-4.1611,-4.1574,-4.1487,-4.1472,-4.1516,-4.1507,-4.1478,-4.1481,-4.1406,-4.139,-4.1426,-4.1426,-4.1426,0,-4.2549,-4.2506,-4.2404,-4.2363,-4.2316,-4.225,-4.2201,-4.2132,-4.2081,-4.1984,-4.1946,-4.1859,-4.1786,-4.1654,-4.1577,-4.1489,-4.1469,-4.1448,-4.1455,-4.1472,-4.1462,-4.1464,-4.1457,-4.1448,-4.1448,-4.1448,-4.1448,0,-4.253,-4.2499,-4.2433,-4.2353,-4.2296,-4.223,-4.2161,-4.2128,-4.2045,-4.199,-4.1905,-4.1849,-4.1734,-4.1646,-4.155,-4.1494,-4.1454,-4.1447,-4.1434,-4.1449,-4.1475,-4.1455,-4.1512,-4.1448,-4.1448,-4.1448,-4.1448,-4.1448,-4.2524,-4.2481,-4.2402,-4.2327,-4.2268,-4.2204,-4.2153,-4.2091,-4.2021,-4.1925,-4.1886,-4.1798,-4.1711,-4.1578,-4.1521,-4.1447,-4.144,-4.1423,-4.1418,-4.1414,-4.1414,-4.1489,-4.1429,-4.1429,-4.1429,-4.1429,-4.1429,0,-4.2498,-4.2443,-4.2376,-4.2281,-4.2221,-4.2193,-4.2113,-4.2063,-4.1987,-4.1911,-4.184,-4.1738,-4.1651,-4.1566,-4.1472,-4.1428,-4.1407,-4.1405,-4.1406,-4.1392,-4.1428,-4.1447,-4.1424,-4.1424,-4.1424,-4.1424,-4.1424,-4.1424,-4.2478,-4.2402,-4.236,-4.2251,-4.2195,-4.2111,-4.2067,-4.2004,-4.1943,-4.1833,-4.1761,-4.1707,-4.1625,-4.1524,-4.144,-4.1416,-4.1381,-4.1384,-4.1355,-4.1389,-4.1391,-4.1392,-4.1409,-4.1378,-4.1378,-4.1324,-4.1324,-4.1324]}]]